H1 CPF 2 NER 2022 10 28 9 301 01 glonass141 H2 1908801 9141 44850 2022 10 28 0 0 0 2022 10 31 23 45 0 900 1 1 0 0 0 1 H9 10 0 59880 0.00000 0 6528130.338 23740891.677 -6680564.643 10 0 59880 900.00000 0 6798085.780 24336575.833 -3541114.480 10 0 59880 1800.00000 0 7017140.256 24531805.050 -332922.229 10 0 59880 2700.00000 0 7129876.535 24334103.976 2881735.007 10 0 59880 3600.00000 0 7084329.897 23763995.077 6040492.451 10 0 59880 4500.00000 0 6834418.126 22854065.338 9082104.922 10 0 59880 5400.00000 0 6342127.117 21647548.379 11947629.535 10 0 59880 6300.00000 0 5579359.902 20196482.365 14581561.193 10 0 59880 7200.00000 0 4529371.268 18559521.472 16932899.345 10 0 59880 8100.00000 0 3187727.531 16799492.754 18956126.147 10 0 59880 9000.00000 0 1562750.842 14980800.359 20612078.086 10 0 59880 9900.00000 0 -324571.079 13166785.033 21868695.161 10 0 59880 10800.00000 0 -2441206.991 11417148.253 22701634.251 10 0 59880 11700.00000 0 -4743211.226 9785547.320 23094735.691 10 0 59880 12600.00000 0 -7177314.300 8317460.565 23040334.690 10 0 59880 13500.00000 0 -9682910.640 7048410.472 22539411.944 10 0 59880 14400.00000 0 -12194362.701 6002617.805 21601580.457 10 0 59880 15300.00000 0 -14643527.496 5192142.160 20244908.387 10 0 59880 16200.00000 0 -16962402.297 4616544.321 18495580.525 10 0 59880 17100.00000 0 -19085780.914 4263084.373 16387403.799 10 0 59880 18000.00000 0 -20953810.962 4107447.365 13961165.145 10 0 59880 18900.00000 0 -22514346.182 4114966.338 11263852.814 10 0 59880 19800.00000 0 -23724995.754 4242291.603 8347754.954 10 0 59880 20700.00000 0 -24554784.602 4439436.297 5269452.019 10 0 59880 21600.00000 0 -24985354.579 4652111.971 2088721.864 10 0 59880 22500.00000 0 -25011655.304 4824255.368 -1132621.490 10 0 59880 23400.00000 0 -24642094.709 4900638.972 -4331932.643 10 0 59880 24300.00000 0 -23898142.142 4829453.938 -7446959.230 10 0 59880 25200.00000 0 -22813400.036 4564754.741 -10417061.382 10 0 59880 26100.00000 0 -21432182.823 4068660.531 -13184401.387 10 0 59880 27000.00000 0 -19807662.834 3313218.289 -15695079.403 10 0 59880 27900.00000 0 -17999661.354 2281847.193 -17900192.108 10 0 59880 28800.00000 0 -16072178.198 970301.433 -19756792.765 10 0 59880 29700.00000 0 -14090764.193 -612890.773 -21228733.396 10 0 59880 30600.00000 0 -12119847.418 -2446531.941 -22287372.319 10 0 59880 31500.00000 0 -10220125.950 -4497400.572 -22912133.078 10 0 59880 32400.00000 0 -8446136.624 -6721410.813 -23090903.996 10 0 59880 33300.00000 0 -6844101.656 -9065238.584 -22820270.830 10 0 59880 34200.00000 0 -5450142.990 -11468346.497 -22105578.330 10 0 59880 35100.00000 0 -4288938.351 -13865323.180 -20960819.933 10 0 59880 36000.00000 0 -3372874.213 -16188439.403 -19408358.162 10 0 59880 36900.00000 0 -2701729.765 -18370314.197 -17478481.622 10 0 59880 37800.00000 0 -2262903.461 -20346579.761 -15208807.645 10 0 59880 38700.00000 0 -2032170.784 -22058433.918 -12643542.577 10 0 59880 39600.00000 0 -1974939.548 -23454973.711 -9832614.615 10 0 59880 40500.00000 0 -2047948.033 -24495212.972 -6830696.477 10 0 59880 41400.00000 0 -2201332.727 -25149700.139 -3696137.347 10 0 59880 42300.00000 0 -2380977.020 -25401669.328 -489825.404 10 0 59880 43200.00000 0 -2531040.539 -25247677.522 2725996.578 10 0 59880 44100.00000 0 -2596561.433 -24697702.229 5888939.251 10 0 59880 45000.00000 0 -2526021.200 -23774696.667 8937674.612 10 0 59880 45900.00000 0 -2273763.479 -22513622.161 11813120.466 10 0 59880 46800.00000 0 -1802164.661 -20959999.151 14459578.728 10 0 59880 47700.00000 0 -1083464.907 -19168038.045 16825805.990 10 0 59880 48600.00000 0 -101182.505 -17198428.372 18865996.381 10 0 59880 49500.00000 0 1148948.008 -15115878.385 20540658.714 10 0 59880 50400.00000 0 2658553.590 -12986507.345 21817371.907 10 0 59880 51300.00000 0 4406734.702 -10875198.315 22671405.160 10 0 59880 52200.00000 0 6360707.880 -8843020.559 23086191.852 10 0 59880 53100.00000 0 8476953.367 -6944827.656 23053648.622 10 0 59880 54000.00000 0 10702821.630 -5227129.912 22574333.883 10 0 59880 54900.00000 0 12978533.669 -3726328.390 21657442.647 10 0 59880 55800.00000 0 15239493.686 -2467383.109 20320637.329 10 0 59880 56700.00000 0 17418819.649 -1462970.075 18589717.016 10 0 59880 57600.00000 0 19449987.942 -713161.854 16498130.451 10 0 59880 58500.00000 0 21269483.033 -205644.829 14086340.912 10 0 59880 59400.00000 0 22819342.366 83535.998 11401053.932 10 0 59880 60300.00000 0 24049490.447 188735.774 8494321.559 10 0 59880 61200.00000 0 24919764.181 153024.186 5422539.562 10 0 59880 62100.00000 0 25401543.997 26126.468 2245356.374 10 0 59880 63000.00000 0 25478921.384 -137921.913 -975485.416 10 0 59880 63900.00000 0 25149352.633 -283307.337 -4177352.231 10 0 59880 64800.00000 0 24423770.205 -355048.951 -7297943.542 10 0 59880 65700.00000 0 23326145.972 -301576.813 -10276512.148 10 0 59880 66600.00000 0 21892523.939 -77166.713 -13055055.905 10 0 59880 67500.00000 0 20169562.612 355872.976 -15579456.669 10 0 59880 68400.00000 0 18212648.127 1025356.672 -17800543.296 10 0 59880 69300.00000 0 16083657.514 1947798.793 -19675057.055 10 0 59880 70200.00000 0 13848466.366 3127474.511 -21166500.042 10 0 59880 71100.00000 0 11574305.774 4556005.115 -22245849.690 10 0 59880 72000.00000 0 9327079.789 6212486.584 -22892125.254 10 0 59880 72900.00000 0 7168755.963 8064156.994 -23092795.347 10 0 59880 73800.00000 0 5154938.118 10067575.424 -22844018.855 10 0 59880 74700.00000 0 3332722.686 12170263.371 -22150714.843 10 0 59880 75600.00000 0 1738927.525 14312740.185 -21026460.568 10 0 59880 76500.00000 0 398766.256 16430867.443 -19493219.989 10 0 59880 77400.00000 0 -674977.720 18458404.102 -17580908.509 10 0 59880 78300.00000 0 -1482244.672 20329665.490 -15326802.853 10 0 59880 79200.00000 0 -2035449.032 21982174.873 -12774807.953 10 0 59880 80100.00000 0 -2358699.424 23359196.598 -9974595.591 10 0 59880 81000.00000 0 -2486523.042 24412044.947 -6980631.974 10 0 59880 81900.00000 0 -2462150.052 25102072.301 -3851113.597 10 0 59880 82800.00000 0 -2335432.008 25402253.782 -646832.616 10 0 59880 83700.00000 0 -2160483.591 25298302.619 2570005.824 10 0 59880 84600.00000 0 -1993148.363 24789270.283 5736991.030 10 0 59880 85500.00000 0 -1888396.300 23887607.076 8792715.251 10 0 59881 0.00000 0 -1897763.456 22618681.620 11677959.568 10 0 59881 900.00000 0 -2066941.993 21019779.322 14336835.994 10 0 59881 1800.00000 0 -2433622.110 19138624.031 16717860.229 10 0 59881 2700.00000 0 -3025676.687 17031482.618 18774940.292 10 0 59881 3600.00000 0 -3859764.902 14760933.067 20468258.897 10 0 59881 4500.00000 0 -4940413.533 12393388.046 21765035.087 10 0 59881 5400.00000 0 -6259614.788 9996476.346 22640151.241 10 0 59881 6300.00000 0 -7796958.183 7636389.929 23076634.248 10 0 59881 7200.00000 0 -9520291.946 5375305.640 23065982.233 10 0 59881 8100.00000 0 -11386887.706 3268987.244 22608330.934 10 0 59881 9000.00000 0 -13345061.497 1364666.034 21712456.493 10 0 59881 9900.00000 0 -15336185.220 -300713.052 20395614.207 10 0 59881 10800.00000 0 -17297006.485 -1701807.926 18683215.589 10 0 59881 11700.00000 0 -19162181.702 -2825704.330 16608348.839 10 0 59881 12600.00000 0 -20866917.992 -3672215.331 14211150.795 10 0 59881 13500.00000 0 -22349614.474 -4253643.023 11538041.138 10 0 59881 14400.00000 0 -23554392.866 -4594012.491 8640832.423 10 0 59881 15300.00000 0 -24433411.317 -4727810.113 5575732.209 10 0 59881 16200.00000 0 -24948863.836 -4698279.286 2402255.916 10 0 59881 17100.00000 0 -25074580.421 -4555345.575 -817928.813 10 0 59881 18000.00000 0 -24797159.358 -4353259.193 -4022203.633 10 0 59881 18900.00000 0 -24116582.691 -4148055.134 -7148223.065 10 0 59881 19800.00000 0 -23046287.619 -3994939.387 -10135135.580 10 0 59881 20700.00000 0 -21612689.637 -3945713.028 -12924777.317 10 0 59881 21600.00000 0 -19854176.551 -4046344.689 -15462814.231 10 0 59881 22500.00000 0 -17819615.039 -4334795.678 -17699809.356 10 0 59881 23400.00000 0 -15566432.259 -4839191.251 -19592193.504 10 0 59881 24300.00000 0 -13158352.958 -5576416.840 -21103119.841 10 0 59881 25200.00000 0 -10662887.107 -6551199.804 -22203185.315 10 0 59881 26100.00000 0 -8148673.539 -7755716.546 -22871004.674 10 0 59881 27000.00000 0 -5682790.911 -9169742.449 -23093625.999 10 0 59881 27900.00000 0 -3328148.365 -10761338.996 -22866779.920 10 0 59881 28800.00000 0 -1141064.787 -12488049.586 -22194957.953 10 0 59881 29700.00000 0 830862.836 -14298554.109 -21091318.918 10 0 59881 30600.00000 0 2550513.797 -16134712.904 -19577425.640 10 0 59881 31500.00000 0 3992548.664 -17933914.301 -17682817.534 10 0 59881 32400.00000 0 5144211.933 -19631627.183 -15444427.800 10 0 59881 33300.00000 0 6005600.575 -21164051.413 -12905856.968 10 0 59881 34200.00000 0 6589389.221 -22470754.779 -10116517.416 10 0 59881 35100.00000 0 6920025.663 -23497185.880 -7130665.911 10 0 59881 36000.00000 0 7032432.602 -24196957.539 -4006343.442 10 0 59881 36900.00000 0 6970272.231 -24533805.163 -804243.482 10 0 59881 37800.00000 0 6783848.513 -24483138.223 2413468.923 10 0 59881 38700.00000 0 6527737.080 -24033120.246 5584363.991 10 0 59881 39600.00000 0 6258243.759 -23185232.604 8646956.242 10 0 59881 40500.00000 0 6030799.698 -21954299.050 11541892.312 10 0 59881 41400.00000 0 5897403.295 -20367970.519 14213094.791 10 0 59881 42300.00000 0 5904216.797 -18465692.124 16608840.287 10 0 59881 43200.00000 0 6089418.673 -16297195.652 18682751.686 10 0 59881 44100.00000 0 6481401.860 -13920580.269 20394686.288 10 0 59881 45000.00000 0 7097393.403 -11400060.952 21711503.668 10 0 59881 45900.00000 0 7942553.382 -8803477.467 22607699.492 10 0 59881 46800.00000 0 9009591.185 -6199666.276 23065893.996 10 0 59881 47700.00000 0 10278915.749 -3655803.187 23077166.369 10 0 59881 48600.00000 0 11719314.480 -1234825.554 22641229.027 10 0 59881 49500.00000 0 13289133.776 1006960.547 21766438.399 10 0 59881 50400.00000 0 14937913.363 3021990.121 20469641.655 10 0 59881 51300.00000 0 16608407.810 4773179.629 18775861.554 10 0 59881 52200.00000 0 18238912.410 6235226.492 16717824.423 10 0 59881 53100.00000 0 19765797.531 7395414.118 14335339.157 10 0 59881 54000.00000 0 21126146.463 8253889.301 11674537.896 10 0 59881 54900.00000 0 22260386.900 8823400.493 8786991.803 10 0 59881 55800.00000 0 23114805.702 9128507.922 5728718.097 10 0 59881 56700.00000 0 23643840.979 9204298.716 2559096.849 10 0 59881 57600.00000 0 23812054.216 9094661.236 -660281.785 10 0 59881 58500.00000 0 23595698.192 8850191.562 -3866817.349 10 0 59881 59400.00000 0 22983813.224 8525821.090 -6998122.131 10 0 59881 60300.00000 0 21978803.957 8178266.273 -9993242.934 10 0 59881 61200.00000 0 20596470.941 7863409.406 -12793856.732 10 0 59881 62100.00000 0 18865494.345 7633722.548 -15345415.908 10 0 59881 63000.00000 0 16826390.473 7535844.922 -17598219.773 10 0 59881 63900.00000 0 14529984.251 7608417.675 -19508390.508 10 0 59881 64800.00000 0 12035461.384 7880268.846 -21038733.913 10 0 59881 65700.00000 0 9408081.623 8369026.408 -22159467.743 10 0 59881 66600.00000 0 6716648.977 9080218.907 -22848803.263 10 0 59881 67500.00000 0 4030844.668 10006902.336 -23093368.755 10 0 59881 68400.00000 0 1418534.230 11129829.536 -22888466.975 10 0 59881 69300.00000 0 -1056838.921 12418155.212 -22238161.883 10 0 59881 70200.00000 0 -3338665.103 13830647.047 -21155193.410 10 0 59881 71100.00000 0 -5379285.313 15317351.921 -19660722.333 10 0 59881 72000.00000 0 -7141726.060 16821646.991 -17783910.688 10 0 59881 72900.00000 0 -8600981.095 18282589.232 -15561346.310 10 0 59881 73800.00000 0 -9744788.096 19637464.395 -13036323.094 10 0 59881 74700.00000 0 -10573869.685 20824427.990 -10257991.448 10 0 59881 75600.00000 0 -11101630.782 21785127.095 -7280395.880 10 0 59881 76500.00000 0 -11353327.126 22467192.640 -4161418.878 10 0 59881 77400.00000 0 -11364741.957 22826497.402 -961652.141 10 0 59881 78300.00000 0 -11180428.492 22829084.908 2256782.503 10 0 59881 79200.00000 0 -10851593.875 22452688.453 5431439.262 10 0 59881 80100.00000 0 -10433715.075 21687776.764 8500757.902 10 0 59881 81000.00000 0 -9983988.183 20538082.802 11405253.189 10 0 59881 81900.00000 0 -9558719.173 19020593.876 14088661.425 10 0 59881 82800.00000 0 -9210766.195 17165003.711 16499022.245 10 0 59881 83700.00000 0 -8987141.006 15012649.399 18589675.513 10 0 59881 84600.00000 0 -8926870.055 12614977.319 20320154.937 10 0 59881 85500.00000 0 -9059204.732 10031601.480 21656962.127 10 0 59882 0.00000 0 -9402255.502 7328034.365 22574207.130 10 0 59882 900.00000 0 -9962107.280 4573181.932 23054104.490 10 0 59882 1800.00000 0 -10732452.730 1836709.046 23087314.754 10 0 59882 2700.00000 0 -11694759.918 -813621.829 22673126.988 10 0 59882 3600.00000 0 -12818967.779 -3314526.275 21819477.428 10 0 59882 4500.00000 0 -14064681.588 -5609583.993 20542804.151 10 0 59882 5400.00000 0 -15382819.773 -7651337.362 18867739.726 10 0 59882 6300.00000 0 -16717644.671 -9403016.413 16826646.702 10 0 59882 7200.00000 0 -18009093.483 -10839819.097 14459003.686 10 0 59882 8100.00000 0 -19195312.948 -11949693.996 11810652.550 10 0 59882 9000.00000 0 -20215292.113 -12733592.987 8932920.026 10 0 59882 9900.00000 0 -21011482.910 -13205183.225 5881629.722 10 0 59882 10800.00000 0 -21532298.118 -13390030.515 2716022.942 10 0 59882 11700.00000 0 -21734380.817 -13324288.347 -502391.136 10 0 59882 12600.00000 0 -21584548.565 -13052947.887 -3711033.439 10 0 59882 13500.00000 0 -21061328.827 -12627723.063 -6847477.460 10 0 59882 14400.00000 0 -20156019.245 -12104660.621 -9850671.668 10 0 59882 15300.00000 0 -18873226.350 -11541576.995 -12662137.020 10 0 59882 16200.00000 0 -17230858.392 -10995431.406 -15227115.239 10 0 59882 17100.00000 0 -15259571.179 -10519747.481 -17495644.480 10 0 59882 18000.00000 0 -13001689.156 -10162193.631 -19423540.434 10 0 59882 18900.00000 0 -10509646.220 -9962425.629 -20973263.139 10 0 59882 19800.00000 0 -7844011.120 -9950283.576 -22114652.165 10 0 59882 20700.00000 0 -5071179.903 -10144420.156 -22825515.634 10 0 59882 21600.00000 0 -2260831.737 -10551418.651 -23092061.702 10 0 59882 22500.00000 0 516745.745 -11165438.198 -22909164.298 10 0 59882 23400.00000 0 3193350.044 -11968401.328 -22280458.318 10 0 59882 24300.00000 0 5705464.340 -12930715.748 -21218262.816 10 0 59882 25200.00000 0 7996657.088 -14012499.724 -19743334.148 10 0 59882 26100.00000 0 10019681.330 -15165259.047 -17884454.289 10 0 59882 27000.00000 0 11738187.273 -16333944.565 -15677862.790 10 0 59882 27900.00000 0 13127978.038 -17459303.177 -13166543.797 10 0 59882 28800.00000 0 14177757.709 -18480422.829 -10399382.493 10 0 59882 29700.00000 0 14889342.279 -19337363.972 -7430207.787 10 0 59882 30600.00000 0 15277326.738 -19973766.333 -4316740.300 10 0 59882 31500.00000 0 15368224.232 -20339321.026 -1119466.638 10 0 59882 32400.00000 0 15199115.533 -20392003.859 2099537.777 10 0 59882 33300.00000 0 14815867.388 -20099975.856 5277814.103 10 0 59882 34200.00000 0 14270996.242 -19443071.223 8353730.022 10 0 59882 35100.00000 0 13621268.447 -18413810.422 11267670.739 10 0 59882 36000.00000 0 12925138.728 -17017895.973 13963188.167 10 0 59882 36900.00000 0 12240135.071 -15274170.331 16388086.434 10 0 59882 37800.00000 0 11620300.008 -13214037.492 18495423.404 10 0 59882 38700.00000 0 11113795.510 -10880372.136 20244409.798 10 0 59882 39600.00000 0 10760771.545 -8325961.226 21601189.449 10 0 59882 40500.00000 0 10591587.165 -5611541.986 22539486.742 10 0 59882 41400.00000 0 10625458.150 -2803516.535 23041109.688 10 0 59882 42300.00000 0 10869587.585 28563.309 23096299.609 10 0 59882 43200.00000 0 11318815.727 2814638.436 22703921.184 10 0 59882 44100.00000 0 11955804.175 5486804.191 21871489.230 10 0 59882 45000.00000 0 12751747.304 7981882.653 20615031.350 10 0 59882 45900.00000 0 13667582.160 10243800.230 18958788.410 10 0 59882 46800.00000 0 14655647.324 12225673.055 16934757.551 10 0 59882 47700.00000 0 15661722.380 13891514.257 14582085.358 10 0 59882 48600.00000 0 16627363.534 15217492.574 11946321.574 10 0 59882 49500.00000 0 17492438.104 16192690.009 9078546.501 10 0 59882 50400.00000 0 18197751.707 16819326.774 6034387.990 10 0 59882 51300.00000 0 18687657.518 17112443.961 2872946.281 10 0 59882 52200.00000 0 18912537.066 17099057.099 -344352.844 10 0 59882 53100.00000 0 18831046.940 16816816.053 -3554954.192 10 0 59882 54000.00000 0 18412035.171 16312227.877 -6696394.966 10 0 59882 54900.00000 0 17636044.705 15638517.872 -9707527.742 10 0 59882 55800.00000 0 16496338.727 14853219.785 -12529719.768 10 0 59882 56700.00000 0 14999402.761 14015597.750 -15108004.232 10 0 59882 57600.00000 0 13164900.686 13184009.919 -17392160.038 10 0 59882 58500.00000 0 11025085.121 12413326.211 -19337698.060 10 0 59882 59400.00000 0 8623685.781 11752510.314 -20906734.021 10 0 59882 60300.00000 0 6014321.557 11242468.897 -22068730.527 10 0 59882 61200.00000 0 3258502.345 10914259.503 -22801093.558 10 0 59882 62100.00000 0 423303.831 10787733.096 -23089611.880 10 0 59882 63000.00000 0 -2421187.921 10870668.654 -22928731.035 10 0 59882 63900.00000 0 -5204555.484 11158436.097 -22321656.915 10 0 59882 64800.00000 0 -7858741.295 11634201.404 -21280287.341 10 0 59882 65700.00000 0 -10320639.282 12269664.718 -19824973.425 10 0 59882 66600.00000 0 -12534479.362 13026299.647 -17984115.791 10 0 59882 67500.00000 0 -14453906.253 13857040.825 -15793603.979 10 0 59882 68400.00000 0 -16043666.974 14708347.849 -13296110.283 10 0 59882 69300.00000 0 -17280837.838 15522557.869 -10540252.263 10 0 59882 70200.00000 0 -18155541.316 16240426.991 -7579640.621 10 0 59882 71100.00000 0 -18671124.529 16803752.801 -4471831.371 10 0 59882 72000.00000 0 -18843793.768 17157966.953 -1277203.214 10 0 59882 72900.00000 0 -18701722.320 17254588.273 1942217.664 10 0 59882 73800.00000 0 -18283670.879 17053432.792 5123962.199 10 0 59882 74700.00000 0 -17637180.140 16524487.633 8206328.767 10 0 59882 75600.00000 0 -16816412.867 15649369.921 11129575.710 10 0 59882 76500.00000 0 -15879737.143 14422309.415 13837073.154 10 0 59882 77400.00000 0 -14887152.870 12850613.691 16276392.151 10 0 59882 78300.00000 0 -13897669.802 10954596.161 18400310.813 10 0 59882 79200.00000 0 -12966746.888 8766969.594 20167718.855 10 0 59882 80100.00000 0 -12143899.817 6331729.809 21544404.027 10 0 59882 81000.00000 0 -11470576.314 3702575.104 22503706.345 10 0 59882 81900.00000 0 -10978387.378 940925.861 23027028.442 10 0 59882 82800.00000 0 -10687767.847 -1886374.838 23104192.916 10 0 59882 83700.00000 0 -10607121.842 -4709585.905 22733640.266 10 0 59882 84600.00000 0 -10732488.667 -7458715.335 21922463.674 10 0 59882 85500.00000 0 -11047743.323 -10066181.561 20686279.635 10 0 59883 0.00000 0 -11525323.683 -12469380.103 19048936.425 10 0 59883 900.00000 0 -12127454.912 -14613051.510 17042064.016 10 0 59883 1800.00000 0 -12807820.036 -16451349.884 14704475.252 10 0 59883 2700.00000 0 -13513608.297 -17949530.828 12081425.544 10 0 59883 3600.00000 0 -14187855.394 -19085185.361 9223746.264 10 0 59883 4500.00000 0 -14771977.831 -19848969.460 6186866.751 10 0 59883 5400.00000 0 -15208394.643 -20244798.226 3029743.238 10 0 59883 6300.00000 0 -15443125.567 -20289496.152 -186284.977 10 0 59883 7200.00000 0 -15428255.114 -20011917.856 -3398689.779 10 0 59883 8100.00000 0 -15124157.196 -19451576.108 -6544975.343 10 0 59883 9000.00000 0 -14501384.710 -18656835.036 -9563901.631 10 0 59883 9900.00000 0 -13542142.434 -17682745.012 -12396685.434 10 0 59883 10800.00000 0 -12241279.156 -16588611.185 -14988154.538 10 0 59883 11700.00000 0 -10606755.310 -15435399.054 -17287831.512 10 0 59883 12600.00000 0 -8659564.754 -14283087.489 -19250925.024 10 0 59883 13500.00000 0 -6433112.555 -13188081.797 -20839208.659 10 0 59883 14400.00000 0 -3972073.705 -12200796.710 -22021769.716 10 0 59883 15300.00000 0 -1330779.834 -11363511.820 -22775613.099 10 0 59883 16200.00000 0 1428799.171 -10708590.116 -23086108.645 10 0 59883 17100.00000 0 4239394.704 -10257134.651 -22947273.363 10 0 59883 18000.00000 0 7031002.637 -10018139.634 -22361883.450 10 0 59883 18900.00000 0 9733563.543 -9988171.070 -21341414.309 10 0 59883 19800.00000 0 12279648.449 -10151589.583 -19905810.186 10 0 59883 20700.00000 0 14607038.498 -10481305.068 -18083088.353 10 0 59883 21600.00000 0 16661091.531 -10940030.305 -15908785.973 10 0 59883 22500.00000 0 18396797.675 -11481979.581 -13425260.786 10 0 59883 23400.00000 0 19780439.063 -12054939.690 -10680859.711 10 0 59883 24300.00000 0 20790785.642 -12602624.918 -7728971.933 10 0 59883 25200.00000 0 21419778.526 -13067215.845 -4626985.324 10 0 59883 26100.00000 0 21672673.891 -13391974.090 -1435167.014 10 0 59883 27000.00000 0 21567643.134 -13523822.166 1784509.722 10 0 59883 27900.00000 0 21134847.780 -13415779.210 4969569.167 10 0 59883 28800.00000 0 20415029.564 -13029149.709 8058243.718 10 0 59883 29700.00000 0 19457676.271 -12335372.925 10990667.829 10 0 59883 30600.00000 0 18318841.389 -11317455.104 13710032.375 10 0 59883 31500.00000 0 17058709.790 -9970924.282 16163677.390 10 0 59883 32400.00000 0 15739011.817 -8304267.418 18304102.781 10 0 59883 33300.00000 0 14420394.036 -6338831.160 20089878.316 10 0 59883 34200.00000 0 13159856.290 -4108189.811 21486436.256 10 0 59883 35100.00000 0 12008361.579 -1657005.901 22466732.414 10 0 59883 36000.00000 0 11008717.762 960570.432 23011763.826 10 0 59883 36900.00000 0 10193818.727 3682898.175 23110933.794 10 0 59883 37800.00000 0 9585317.692 6443157.069 22762257.753 10 0 59883 38700.00000 0 9192787.423 9171880.077 21972406.088 10 0 59883 39600.00000 0 9013402.213 11799603.344 20756582.791 10 0 59883 40500.00000 0 9032154.894 14259525.387 19138241.611 10 0 59883 41400.00000 0 9222600.105 16490066.537 17148644.163 10 0 59883 42300.00000 0 9548093.242 18437223.221 14826267.338 10 0 59883 43200.00000 0 9963473.702 20056619.806 12216070.121 10 0 59883 44100.00000 0 10417122.332 21315172.702 9368632.702 10 0 59883 45000.00000 0 10853306.934 22192297.054 6339183.516 10 0 59883 45900.00000 0 11214717.137 22680605.188 3186532.257 10 0 59883 46800.00000 0 11445081.427 22786066.980 -28070.889 10 0 59883 47700.00000 0 11491755.140 22527624.813 -3242127.556 10 0 59883 48600.00000 0 11308168.931 21936278.888 -6393111.539 10 0 59883 49500.00000 0 10856032.724 21053681.122 -9419692.739 10 0 59883 50400.00000 0 10107200.231 19930296.853 -12262939.871 10 0 59883 51300.00000 0 9045113.360 18623212.175 -14867477.484 10 0 59883 52200.00000 0 7665763.557 17193679.801 -17182573.754 10 0 59883 53100.00000 0 5978127.777 15704507.677 -19163136.817 10 0 59883 54000.00000 0 4004059.034 14217401.112 -20770599.568 10 0 59883 54900.00000 0 1777634.746 12790371.080 -21973675.205 10 0 59883 55800.00000 0 -656010.817 11475318.380 -22748968.532 10 0 59883 56700.00000 0 -3242321.903 10315895.561 -23081431.162 10 0 59883 57600.00000 0 -5919356.606 9345736.495 -22964651.978 10 0 59883 58500.00000 0 -8620137.419 8587127.683 -22400977.515 10 0 59883 59400.00000 0 -11275219.148 8050176.437 -21401460.376 10 0 59883 60300.00000 0 -13815367.299 7732509.885 -19985637.113 10 0 59883 61200.00000 0 -16174235.382 7619516.287 -18181140.363 10 0 59883 62100.00000 0 -18290929.820 7685117.100 -16023153.217 10 0 59883 63000.00000 0 -20112355.985 7893035.846 -13553716.814 10 0 59883 63900.00000 0 -21595247.987 8198508.941 -10820905.121 10 0 59883 64800.00000 0 -22707798.379 8550364.957 -7877883.305 10 0 59883 65700.00000 0 -23430820.733 8893383.427 -4781868.489 10 0 59883 66600.00000 0 -23758397.665 9170832.614 -1593013.556 10 0 59883 67500.00000 0 -23697988.675 9327078.290 1626763.859 10 0 59883 68400.00000 0 -23269994.727 9310152.810 4814984.116 10 0 59883 69300.00000 0 -22506799.327 9074175.671 7909816.374 10 0 59883 70200.00000 0 -21451327.638 8581523.284 10851273.917 10 0 59883 71100.00000 0 -20155185.137 7804656.382 13582371.015 10 0 59883 72000.00000 0 -18676454.633 6727528.163 16050219.219 10 0 59883 72900.00000 0 -17077244.296 5346513.828 18207042.576 10 0 59883 73800.00000 0 -15421089.319 3670822.206 20011092.997 10 0 59883 74700.00000 0 -13770315.469 1722371.782 21427449.024 10 0 59883 75600.00000 0 -12183473.959 -464864.592 22428683.661 10 0 59883 76500.00000 0 -10712953.739 -2846020.125 22995389.347 10 0 59883 77400.00000 0 -9402869.790 -5366952.735 23116550.673 10 0 59883 78300.00000 0 -8287314.406 -7966256.320 22789758.197 10 0 59883 79200.00000 0 -7389043.471 -10577582.958 22021259.303 10 0 59883 80100.00000 0 -6718651.863 -13132181.373 20825844.895 10 0 59883 81000.00000 0 -6274271.987 -15561548.043 19226573.419 10 0 59883 81900.00000 0 -6041807.909 -17800082.336 17254336.555 10 0 59883 82800.00000 0 -5995695.471 -19787636.333 14947273.773 10 0 59883 83700.00000 0 -6100156.835 -21471853.986 12350045.733 10 0 59883 84600.00000 0 -6310897.159 -22810202.374 9512979.291 10 0 59883 85500.00000 0 -6577172.427 -23771610.026 6491099.607 99